Price, UT

7:26 AM MDT on September 24, 2017 (GMT -0600)
Carbon County

Weather History for KPUC - August, 2013

Change the Weather History Date:

Thursday, August 22, 2013

  Actual Average Record
Temperature  
Mean Temperature 74 °F -  
Max Temperature 84 °F 81 °F 96 °F (1977)
Min Temperature 64 °F 55 °F 46 °F (1975)
Cooling Degree Days 9    
Growing Degree Days 24 (Base 50)    
Moisture  
Dew Point 48 °F    
Average Humidity 43    
Maximum Humidity 70    
Minimum Humidity 25    
Precipitation  
Precipitation 0.00 in - - ()
Sea Level Pressure  
Sea Level Pressure 29.97 in    
Wind  
Wind Speed 6 mph (ENE)    
Max Wind Speed 10 mph    
Max Gust Speed -    
Visibility 10 miles    
Events Rain    
Averages and records for this station are not official NWS values.
T = Trace of Precipitation, MM = Missing Value Source: NWS Daily Summary

Daily Weather History Graph

Daily Weather History Graph

Search for Another Location

Airport or City:

Trip Planner

Search our weather history database for the weather conditions in past years. The results will help you decide how hot, cold, wet, or windy it might be!

Date:

Astronomy

Aug. 22, 2013 Rise Set
Actual Time 6:42 AM MDT 8:08 PM MDT
Civil Twilight 6:13 AM MDT 8:36 PM MDT
Nautical Twilight 5:39 AM MDT 9:10 PM MDT
Astronomical Twilight 5:04 AM MDT 9:46 PM MDT
Moon 8:55 PM MDT (8/22) 8:34 AM MDT (8/22)
Length of Visible Light 14h 22m
Length of Day
13h 26m
Waning Gibbous, 96% of the Moon is Illuminated
Aug 22
Waning Gibbous
Aug 28
Last Quarter
Sep 5
New
Sep 12
First Quarter
Sep 19
Full

Hourly Weather History & Observations

Time (MDT) Temp. Dew Point Humidity Pressure Visibility Wind Dir Wind Speed Gust Speed Precip Events Conditions
12:53 AM 75.0 °F 45.0 °F 34% 29.92 in 10.0 mi East 10.4 mph - N/A   Mostly Cloudy
1:53 AM 72.0 °F 48.9 °F 44% 29.94 in 10.0 mi ESE 8.1 mph - N/A   Overcast
2:53 AM 69.1 °F 51.1 °F 53% 29.98 in 10.0 mi East 10.4 mph - N/A   Overcast
3:53 AM 66.9 °F 54.0 °F 63% 29.99 in 10.0 mi East 4.6 mph - 0.00 in Rain Light Rain
4:53 AM 64.9 °F 52.0 °F 63% 29.98 in 10.0 mi West 3.5 mph - 0.00 in   Mostly Cloudy
5:53 AM 64.9 °F 52.0 °F 63% 29.98 in 10.0 mi NNW 5.8 mph - N/A   Overcast
6:53 AM 66.9 °F 52.0 °F 59% 29.98 in 10.0 mi West 6.9 mph - 0.00 in   Overcast
7:53 AM 64.9 °F 55.0 °F 70% 30.03 in 10.0 mi ESE 4.6 mph - N/A   Overcast
8:53 AM 69.1 °F 52.0 °F 54% 30.03 in 10.0 mi East 6.9 mph - N/A   Scattered Clouds
9:53 AM 70.0 °F 53.1 °F 55% 30.06 in 10.0 mi ESE 6.9 mph - N/A   Mostly Cloudy
10:53 AM 72.0 °F 51.1 °F 48% 30.06 in 10.0 mi East 10.4 mph - N/A   Overcast
11:53 AM 73.9 °F 48.0 °F 40% 30.05 in 10.0 mi East 4.6 mph - N/A   Mostly Cloudy
12:53 PM 80.1 °F 46.0 °F 30% 29.99 in 10.0 mi Variable 3.5 mph - N/A   Clear
1:53 PM 78.1 °F 46.0 °F 32% 30.00 in 10.0 mi Calm Calm - N/A   Clear
2:53 PM 80.1 °F 45.0 °F 29% 29.98 in 10.0 mi Calm Calm - N/A   Clear
3:53 PM 84.0 °F 44.1 °F 25% 29.94 in 10.0 mi North 3.5 mph - N/A   Clear
4:53 PM 82.9 °F 45.0 °F 26% 29.92 in 10.0 mi ESE 9.2 mph - N/A   Clear
5:53 PM 81.0 °F 44.1 °F 27% 29.91 in 10.0 mi East 4.6 mph - N/A   Clear
6:53 PM 81.0 °F 44.1 °F 27% 29.88 in 10.0 mi Variable 3.5 mph - N/A   Clear
7:53 PM 78.1 °F 45.0 °F 31% 29.90 in 10.0 mi Calm Calm - N/A   Clear
8:53 PM 77.0 °F 45.0 °F 32% 29.91 in 10.0 mi Calm Calm - N/A   Clear
9:53 PM 70.0 °F 45.0 °F 41% 29.94 in 10.0 mi NNE 8.1 mph - N/A   Clear
10:53 PM 66.9 °F 45.0 °F 45% 29.95 in 10.0 mi North 3.5 mph - N/A   Clear
11:53 PM 66.9 °F 45.0 °F 45% 29.93 in 10.0 mi NNE 6.9 mph - N/A   Clear